Location: Davayat
(45.9471°N, 3.1105°E)
Time: 13:43:12
(UTC+00:00)

Cosmos 1238 Rocket - Pass Details

Date: 01 December 2020
Orbit: 375 x 1024 km, 83.0° (Epoch: 26 January)

Event Time Altitude Azimuth Distance (km) Brightness Sun altitude
Rises 17:13:07 0° 7° (N) 2,640 6.0 -11.6°
Reaches altitude 10° 17:15:32 10° 24° (NNE) 1,853 5.1 -12.0°
Maximum altitude 17:18:40 21° 75° (ENE) 1,411 4.3 -12.6°
Drops below altitude 10° 17:22:13 10° 123° (ESE) 2,145 5.5 -13.1°
Sets 17:25:21 0° 140° (SE) 3,229 6.5 -13.7°
